Weather History for KTCM - March, 2012

Change the Weather History Date:

Thursday, March 22, 2012

  Actual Average Record
Temperature  
Mean Temperature 40 °F -  
Max Temperature 49 °F 52 °F 68 °F (1968)
Min Temperature 31 °F 35 °F 26 °F (2001)
Degree Days  
Heating Degree Days 25    
Moisture  
Dew Point 34 °F    
Average Humidity 87    
Maximum Humidity 100    
Minimum Humidity 50    
Precipitation  
Precipitation 0.96 in - - ()
Sea Level Pressure  
Sea Level Pressure 29.93 in    
Wind  
Wind Speed 3 mph (SSW)    
Max Wind Speed 9 mph    
Max Gust Speed -    
Visibility 8 miles    
Events Rain , Snow    
Averages and records for this station are not official NWS values.
T = Trace of Precipitation, MM = Missing Value Source: NWS Daily Summary

Daily Weather History Graph

Daily Weather History Graph

Search for Another Location

Airport or City:

Trip Planner

Search our weather history database for the weather conditions in past years. The results will help you decide how hot, cold, wet, or windy it might be!

Date:

Astronomy

Mar. 22, 2012 Rise Set
Actual Time 7:07 AM PDT 7:26 PM PDT
Civil Twilight 6:37 AM PDT 7:56 PM PDT
Nautical Twilight 6:01 AM PDT 8:32 PM PDT
Astronomical Twilight 5:24 AM PDT 9:10 PM PDT
Moon 6:46 AM PDT (3/22) 8:02 PM PDT (3/22)
Length of Visible Light 13h 19m
Length of Day
12h 18m
New Moon, 0% of the Moon is Illuminated
Mar 22
New Moon
Mar 30
First Quarter
Apr 6
Full
Apr 13
Last Quarter
Apr 21
New

Hourly Weather History & Observations

Time (PDT) Temp. Windchill Dew Point Humidity Pressure Visibility Wind Dir Wind Speed Gust Speed Precip Events Conditions
12:17 AM 37.4 °F - 35.6 °F 93% 29.83 in 9.0 mi Calm Calm - N/A Rain Light Rain
12:22 AM 37.4 °F - 35.6 °F 93% 29.83 in 9.0 mi Calm Calm - N/A Rain Light Rain
12:24 AM 37.4 °F - 35.6 °F 93% 29.83 in 9.0 mi Calm Calm - N/A Rain Light Rain
12:35 AM 37.4 °F 34.9 °F 35.6 °F 93% 29.83 in 9.0 mi North 3.5 mph - N/A Rain Light Rain
12:55 AM 36.9 °F - 35.1 °F 93% 29.83 in 9.0 mi Calm Calm - 0.05 in Rain Light Rain
1:25 AM 35.6 °F - 33.8 °F 93% 29.84 in 8.0 mi Calm Calm - N/A Rain Light Rain
1:30 AM 35.6 °F - 33.8 °F 93% 29.85 in 9.0 mi Calm Calm - N/A Rain Light Rain
1:35 AM 35.6 °F - 33.8 °F 93% 29.84 in 8.0 mi Calm Calm - N/A Rain Light Rain
1:49 AM 35.6 °F - 33.8 °F 93% 29.83 in 8.0 mi Calm Calm - N/A Rain Light Rain
1:51 AM 35.6 °F - 33.8 °F 93% 29.84 in 9.0 mi Calm Calm - N/A Rain Light Rain
1:55 AM 35.8 °F 33.0 °F 34.5 °F 95% 29.85 in 9.0 mi West 3.5 mph - 0.05 in Rain Light Rain
2:09 AM 35.6 °F - 33.8 °F 93% 29.86 in 8.0 mi Calm Calm - N/A Rain Light Rain
2:12 AM 35.6 °F 31.7 °F 33.8 °F 93% 29.86 in 8.0 mi WSW 4.6 mph - N/A Rain Light Rain
2:28 AM 33.8 °F 30.8 °F 33.8 °F 100% 29.86 in 5.0 mi WSW 3.5 mph - N/A Snow Light Snow
2:30 AM 33.8 °F 30.8 °F 33.8 °F 100% 29.86 in 5.0 mi WSW 3.5 mph - N/A Snow Light Snow
2:38 AM 33.8 °F 30.8 °F 33.8 °F 100% 29.87 in 4.0 mi WSW 3.5 mph - N/A Snow Light Snow
2:39 AM 33.8 °F 30.8 °F 33.8 °F 100% 29.87 in 4.0 mi WSW 3.5 mph - N/A Snow Light Snow
2:42 AM 33.8 °F 30.8 °F 33.8 °F 100% 29.87 in 4.0 mi WSW 3.5 mph - N/A Snow Light Snow
2:55 AM 33.6 °F 30.6 °F 33.4 °F 99% 29.88 in 3.0 mi SW 3.5 mph - 0.07 in Snow Light Snow
3:00 AM 33.8 °F 30.8 °F 33.8 °F 100% 29.88 in 2.5 mi SW 3.5 mph - N/A Snow Light Snow
3:01 AM 33.8 °F 30.8 °F 33.8 °F 100% 29.88 in 2.5 mi SW 3.5 mph - N/A Snow Light Snow
3:03 AM 33.8 °F 30.8 °F 33.8 °F 100% 29.88 in 2.0 mi WSW 3.5 mph - N/A Snow Light Snow
3:04 AM 33.8 °F 30.8 °F 33.8 °F 100% 29.88 in 2.0 mi WSW 3.5 mph - N/A Snow Light Snow
3:05 AM 33.8 °F 30.8 °F 33.8 °F 100% 29.88 in 1.8 mi WSW 3.5 mph - N/A Snow Light Snow
3:07 AM 33.8 °F 30.8 °F 33.8 °F 100% 29.88 in 1.5 mi WSW 3.5 mph - N/A Snow Light Snow
3:13 AM 33.8 °F 29.6 °F 32.0 °F 93% 29.89 in 1.5 mi SW 4.6 mph - N/A Snow Light Snow
3:14 AM 33.8 °F 30.8 °F 32.0 °F 93% 29.88 in 1.8 mi SW 3.5 mph - N/A Snow Light Snow
3:15 AM 33.8 °F 30.8 °F 32.0 °F 93% 29.88 in 2.0 mi WSW 3.5 mph - N/A Snow Light Snow
3:17 AM 33.8 °F - 32.0 °F 93% 29.88 in 2.5 mi Calm Calm - N/A Snow Light Snow
3:19 AM 33.8 °F - 33.8 °F 100% 29.88 in 3.0 mi Calm Calm - N/A Snow Light Snow
3:20 AM 33.8 °F - 33.8 °F 100% 29.88 in 3.0 mi Calm Calm - N/A Snow Light Snow
3:25 AM 33.8 °F - 33.8 °F 100% 29.88 in 5.0 mi Calm Calm - N/A Rain Light Rain
3:26 AM 33.8 °F - 33.8 °F 100% 29.88 in 6.0 mi Calm Calm - N/A Rain Light Freezing Rain
3:27 AM 33.8 °F - 33.8 °F 100% 29.88 in 6.0 mi Calm Calm - N/A Rain Light Freezing Rain
3:32 AM 33.8 °F - 33.8 °F 100% 29.88 in 8.0 mi Calm Calm - N/A Rain , Snow Light Rain
3:33 AM 33.8 °F 30.8 °F 33.8 °F 100% 29.88 in 8.0 mi South 3.5 mph - N/A Rain , Snow Light Rain
3:55 AM 33.1 °F 28.7 °F 32.7 °F 99% 29.89 in 10.0 mi SE 4.6 mph - 0.04 in   Mostly Cloudy
3:56 AM 33.8 °F 30.8 °F 32.0 °F 93% 29.89 in 10.0 mi ESE 3.5 mph - N/A   Mostly Cloudy
4:55 AM 33.1 °F 27.7 °F 32.9 °F 99% 29.92 in 10.0 mi South 5.8 mph - N/A   Overcast
5:42 AM 33.8 °F 28.6 °F 32.0 °F 93% 29.95 in 10.0 mi South 5.8 mph - N/A   Overcast
5:55 AM 32.5 °F 26.2 °F 32.4 °F 99% 29.96 in 10.0 mi South 6.9 mph - N/A   Overcast
5:58 AM 32.0 °F 25.6 °F 32.0 °F 100% 29.96 in 10.0 mi South 6.9 mph - N/A   Overcast
6:55 AM 31.3 °F 24.7 °F 31.1 °F 99% 29.99 in 10.0 mi SSE 6.9 mph - N/A   Partly Cloudy
7:55 AM 31.3 °F 27.9 °F 30.9 °F 99% 30.00 in 10.0 mi SE 3.5 mph - N/A   Clear
8:55 AM 36.0 °F 31.1 °F 34.9 °F 96% 30.02 in 10.0 mi South 5.8 mph - N/A   Clear
9:55 AM 39.9 °F 34.5 °F 36.7 °F 88% 30.04 in 10.0 mi South 8.1 mph - N/A   Clear
10:55 AM 43.2 °F 38.4 °F 37.4 °F 80% 30.06 in 10.0 mi South 8.1 mph - N/A   Mostly Cloudy
11:51 AM 44.6 °F 40.7 °F 35.6 °F 71% 30.06 in 10.0 mi SSW 6.9 mph - N/A   Mostly Cloudy
11:53 AM 44.6 °F 41.4 °F 35.6 °F 71% 30.06 in 10.0 mi South 5.8 mph - N/A   Mostly Cloudy
11:54 AM 44.6 °F 41.4 °F 35.6 °F 71% 30.06 in 10.0 mi South 5.8 mph - N/A   Mostly Cloudy
11:55 AM 45.1 °F 41.4 °F 35.6 °F 69% 30.06 in 10.0 mi South 6.9 mph - 0.75 in   Mostly Cloudy
11:56 AM 44.6 °F 40.7 °F 35.6 °F 71% 30.06 in 10.0 mi SSW 6.9 mph - N/A   Mostly Cloudy
11:58 AM 44.6 °F 41.4 °F 35.6 °F 71% 30.06 in 10.0 mi South 5.8 mph - N/A   Mostly Cloudy
12:00 PM 46.4 °F 43.5 °F 35.6 °F 66% 30.06 in 10.0 mi Variable 5.8 mph - N/A   Scattered Clouds
12:05 PM 44.6 °F 40.7 °F 35.6 °F 71% 30.04 in 10.0 mi Variable 6.9 mph - N/A   Scattered Clouds
12:10 PM 46.4 °F 41.9 °F 35.6 °F 66% 30.06 in 3.0 mi South 9.2 mph - N/A   Haze
12:55 PM 45.7 °F 43.4 °F 34.7 °F 65% 30.06 in 10.0 mi Variable 4.6 mph - N/A   Partly Cloudy
1:55 PM 47.5 °F - 33.6 °F 59% 30.04 in 10.0 mi SSE 6.9 mph - N/A   Mostly Cloudy
2:55 PM 48.9 °F - 31.5 °F 51% 30.01 in 10.0 mi South 8.1 mph - N/A   Partly Cloudy
3:55 PM 49.5 °F - 31.5 °F 50% 29.99 in 10.0 mi South 4.6 mph - N/A   Partly Cloudy
4:55 PM 48.6 °F - 30.9 °F 51% 29.99 in 10.0 mi South 6.9 mph - N/A   Partly Cloudy
5:55 PM 47.8 °F - 30.7 °F 52% 29.98 in 10.0 mi SW 5.8 mph - N/A   Clear
6:55 PM 46.9 °F - 30.4 °F 53% 29.98 in 10.0 mi SW 3.5 mph - N/A   Partly Cloudy
7:55 PM 45.0 °F 42.6 °F 33.3 °F 64% 29.98 in 10.0 mi NW 4.6 mph - N/A   Clear
8:55 PM 43.2 °F 41.5 °F 33.4 °F 69% 29.99 in 10.0 mi WNW 3.5 mph - N/A   Clear
9:55 PM 41.2 °F 39.2 °F 35.1 °F 79% 29.99 in 10.0 mi SW 3.5 mph - N/A   Clear
10:55 PM 34.0 °F 29.8 °F 32.0 °F 92% 29.99 in 10.0 mi South 4.6 mph - N/A   Clear
11:55 PM 33.8 °F - 31.1 °F 90% 29.99 in 10.0 mi Calm Calm - N/A   Partly Cloudy